Location: Navajo
(48.7922°N, 105.0603°W)
Time: 05:42:49
(UTC+00:00)

KKS-1 - Pass Details

Date: 01 July 2022
Orbit: 634 x 649 km, 98.2° (Epoch: 18 August)

Event Time Altitude Azimuth Distance (km) Brightness Sun altitude
Rises 07:04:00 0° 356° (N) 2,980 ? -18.1°
Reaches altitude 10° 07:08:24 10° 315° (NW) 2,060 ? -18.1°
Maximum altitude 07:09:01 10° 307° (NW) 2,042 ? -18.1°
Drops below altitude 10° 07:09:38 10° 299° (WNW) 2,058 ? -18.1°
Sets 07:14:01 0° 258° (WSW) 2,958 ? -18.1°
